Jilin-1 Kuanfu-02B 01

operational
NORAD ID: 61189 Int'l Des: 2024-169 Owner: CGSTL Country: CN Constellation: jilin-1
LEOCIRCULARRETROGRADESSO

关于 Jilin-1 Kuanfu-02B 01

正在加载描述...

实时位置

正在加载3D地球...

即将过境

高度历史

Altitude vs Time

uPlot chart will show altitude changes over time

两行轨道根数

1 61189U 24169A 25278.50080929 .00007621 00000-0 47627-3 0 9999
2 61189 97.5808 6.3908 0000880 84.6510 275.4820 15.09731759 57401
Epoch: Oct 5, 2025 • Age: 7 hours

当前状态

高度 544.8 km
速度 7.59 km/s
星下点 50.95°N, 102.88°W
发射日期 Sep 20, 2024
运行时间 1 years
类型 other

技术详情

分类 Payload
质量 230.00 kg
干质量 200.00 kg
总质量 230.00 kg
长度 0.50 m
直径 0.50 m
跨度 1.50 m
形状 Box + 2 pan
制造商 HARB/CGSTL
平台类型 JL-1
阶段状态 In Orbit
所有者/国家 CGSTL/CN

大型星座

Loading constellations...